[[{"header":{"parameterUnit":"m.s-1","parameterCategory":1,"la1":30.2991,"la2":30.254,"lo1":-89.0895,"lo2":-89.0444,"dx":0.0017,"dy":0.0017,"nx":28,"ny":28,"refTime":"2023-01-12T15:00:00:Z","depth":0,"parameterNumber":2,"parameterNumberName":"U-component_of_WINDS"},"data":[0,0,0,0,0,0,0,0,0,0,0,0,0,0,0,0,0,0,0,0,0,0,0,0,0,0,0,0,0,0,0,0,0,0,0,0,0,0,0,0,0,0,0,0,0,0,0,0,0,0,0,0,0,0,0,0,0,0,1.6017,1.6018,0,1.6106,1.6107,1.6108,1.6128,1.6128,1.6127,1.6127,1.622,1.6223,1.6226,0,0,0,0,0,0,0,0,0,0,0,0,0,1.5867,1.5869,1.6017,1.6018,1.6019,1.6105,1.6107,1.6108,1.6128,1.6128,1.6127,1.6126,1.6219,1.6223,1.6226,0,0,0,0,0,0,0,0,0,0,0,0,0,1.5941,1.587,1.6016,1.6039,1.6042,1.6105,1.6107,1.6108,1.6129,1.6128,1.6127,1.6126,1.6218,1.6222,1.6227,1.6274,0,0,1.6241,1.6243,0,0,0,0,0,0,0,0,1.5937,1.5947,1.6035,1.6038,1.6041,1.6105,1.6088,1.6164,1.6129,1.6096,1.6126,1.6125,1.6183,1.619,1.6209,1.6278,1.6282,1.6241,1.6244,1.6246,1.6247,0,0,0,0,0,0,0,1.5932,1.5943,1.6052,1.6036,1.604,1.6046,1.6056,1.6103,1.6144,1.6099,1.61,1.6111,1.6184,1.6204,1.6211,1.6284,1.6241,1.6245,1.6248,1.625,1.6397,1.6398,0,0,0,0,0,0,1.5922,1.5939,1.6049,1.6055,1.5986,1.605,1.606,1.6085,1.6143,1.6151,1.6111,1.6111,1.6197,1.6206,1.6215,1.6274,1.6246,1.625,1.6253,1.6396,1.6397,1.6398,0,0,0,0,0,0,1.5919,1.5932,1.6045,1.5997,1.6012,1.6053,1.6081,1.6088,1.6108,1.6152,1.616,1.6124,1.6197,1.6208,1.6259,1.6278,1.6253,1.6257,1.6394,1.6396,1.6398,1.6393,0,0,0,0,0,0,1.5915,1.5931,1.5949,1.5997,1.6015,1.6088,1.6082,1.609,1.6115,1.6116,1.6167,1.6174,1.6197,1.6252,1.6264,1.6284,1.626,1.6393,1.6395,1.6397,1.6392,1.6394,1.6397,0,0,0,0,0,1.5909,1.5944,1.5949,1.5963,1.6037,1.6089,1.6099,1.6123,1.6117,1.6136,1.6164,1.6173,1.6273,1.6257,1.627,1.6292,1.6392,1.6394,1.6397,1.6391,1.6394,1.6397,0,0,0,0,0,0,1.5897,1.5951,1.5957,1.6009,1.6044,1.6092,1.6116,1.6126,1.6164,1.6163,1.6193,1.6204,1.6253,1.6278,1.6258,1.6341,1.6333,1.6338,1.6323,1.6327,1.6329,1.6323,1.6264,0,0,0,0,0,1.59,1.5937,1.5982,1.6023,1.604,1.6075,1.6098,1.6114,1.6152,1.6167,1.62,1.6237,1.6277,1.6303,1.6342,1.6395,1.6407,1.6416,1.6419,1.6421,1.6425,1.6456,1.6461,1.6407,1.6407,1.6407,0,0,1.5907,1.5941,1.5963,1.6021,1.605,1.6088,1.6088,1.6127,1.6156,1.6174,1.6224,1.6249,1.6292,1.6344,1.6369,1.6366,1.6443,1.6424,1.6425,1.6429,1.6459,1.6464,1.6469,1.6408,1.6408,1.6408,0,0,1.594,1.5969,1.6007,1.6036,1.6079,1.6102,1.6111,1.6158,1.6175,1.6226,1.624,1.6274,1.6343,1.6373,1.6398,1.6442,1.6452,1.6454,1.6467,1.6497,1.6501,1.6505,1.6522,1.6527,1.6458,1.6458,1.6458,0,1.5944,1.6001,1.6025,1.6064,1.609,1.6107,1.6146,1.6173,1.6228,1.6246,1.6241,1.6327,1.6358,1.6418,1.6428,1.6447,1.6459,1.6449,1.6498,1.6502,1.6506,1.6523,1.6529,1.6458,1.6458,1.6458,1.6458,0,1.6004,1.6043,1.6068,1.612,1.6149,1.6188,1.6218,1.6244,1.6258,1.6281,1.6333,1.637,1.6417,1.6432,1.6446,1.6494,1.6491,1.6492,1.6485,1.6511,1.6527,1.6534,1.6458,1.6458,1.6458,1.6458,0,0,1.6032,1.6096,1.6105,1.6129,1.6179,1.621,1.625,1.6296,1.6318,1.6355,1.639,1.6447,1.6448,1.6476,1.6493,1.6518,1.6552,1.6517,1.6518,1.6523,1.6609,1.6609,1.6616,1.6558,1.6559,1.656,1.6606,0,1.6072,1.6143,1.6166,1.6226,1.6263,1.6279,1.6314,1.6349,1.6372,1.6407,1.6433,1.6473,1.6471,1.6488,1.6514,1.6543,1.657,1.6539,1.6592,1.6594,1.6582,1.6624,1.6624,1.6665,1.6612,1.6613,1.6614,0,1.6128,1.6165,1.6229,1.6274,1.629,1.6321,1.6365,1.6398,1.6438,1.6453,1.6484,1.6499,1.6542,1.6531,1.6591,1.657,1.6593,1.661,1.6612,1.6619,1.6606,1.6633,1.6679,1.6685,1.6624,1.6623,1.6622,0,1.6144,1.621,1.6256,1.6276,1.633,1.6351,1.6375,1.6413,1.6439,1.6478,1.6495,1.6538,1.6562,1.6596,1.6622,1.6611,1.6681,1.6672,1.6695,1.6695,1.6711,1.6709,1.6762,1.6723,1.6723,1.6723,1.6723,0,1.6186,1.6225,1.6264,1.6293,1.6337,1.6363,1.6406,1.643,1.6464,1.6499,1.6515,1.6547,1.658,1.6616,1.6637,1.6685,1.6695,1.6709,1.6715,1.6709,1.6707,1.6725,1.6724,1.6724,1.6724,1.6724,1.6723,0,1.6212,1.624,1.6292,1.6338,1.635,1.6381,1.6421,1.645,1.6473,1.6516,1.6528,1.6565,1.6609,1.6638,1.6695,1.6709,1.6761,1.6765,1.6748,1.675,1.6773,1.6771,1.684,1.6851,1.6803,1.6804,1.6804,0,1.6238,1.6268,1.6317,1.6341,1.6364,1.6403,1.6429,1.6456,1.6483,1.653,1.6554,1.6599,1.6636,1.6706,1.6738,1.6782,1.6788,1.6809,1.6795,1.6788,1.679,1.6788,1.6792,1.6812,1.6812,1.6812,1.6812,0,1.6281,1.6294,1.6331,1.6373,1.6404,1.6439,1.6474,1.6493,1.6526,1.6556,1.66,1.6629,1.6687,1.6731,1.6778,1.6803,1.6814,1.6816,1.6825,1.6819,1.6808,1.6816,1.6755,1.6815,1.6815,1.6815,1.6815,1.6814,1.6309,1.6337,1.6376,1.6417,1.6446,1.6478,1.6508,1.6534,1.6572,1.662,1.6634,1.6681,1.672,1.6783,1.6809,1.6847,1.6845,1.6856,1.6859,1.6862,1.6863,1.6801,1.6855,1.6855,1.6855,1.6855,1.6855,0,1.6354,1.638,1.6418,1.6466,1.6498,1.6504,1.6543,1.6571,1.6612,1.6647,1.6683,1.6735,1.6779,1.6814,1.6859,1.6883,1.6889,1.6894,1.6893,1.6899,1.6861,1.685,1.6888,1.6888,1.6888,1.6888,1.6888,1.6888,1.6382,1.6429,1.6446,1.6508,1.6534,1.658,1.6602,1.6632,1.666,1.6717,1.6753,1.6776,1.6811,1.6859,1.69,1.6909,1.6925,1.6929,1.694,1.6905,1.6901,1.6898,1.6888,1.6932,1.6932,1.6974,1.6975,1.6975]},{"header":{"parameterUnit":"m.s-1","parameterCategory":1,"la1":30.2991,"la2":30.254,"lo1":-89.0895,"lo2":-89.0444,"dx":0.0017,"dy":0.0017,"nx":28,"ny":28,"refTime":"2023-01-12T15:00:00:Z","depth":0,"parameterNumber":3,"parameterNumberName":"V-component_of_WINDS"},"data":[0,0,0,0,0,0,0,0,0,0,0,0,0,0,0,0,0,0,0,0,0,0,0,0,0,0,0,0,0,0,0,0,0,0,0,0,0,0,0,0,0,0,0,0,0,0,0,0,0,0,0,0,0,0,0,0,0,0,2.5777,2.5777,0,2.5801,2.5801,2.5802,2.5778,2.5777,2.5776,2.5775,2.5798,2.58,2.5801,0,0,0,0,0,0,0,0,0,0,0,0,0,2.571,2.5712,2.5777,2.5777,2.5778,2.5801,2.5801,2.5802,2.5778,2.5777,2.5776,2.5775,2.5798,2.58,2.5801,0,0,0,0,0,0,0,0,0,0,0,0,0,2.5737,2.5712,2.5777,2.5769,2.5768,2.5801,2.5801,2.5802,2.5779,2.5777,2.5776,2.5774,2.5797,2.58,2.5802,2.5843,0,0,2.5808,2.5809,0,0,0,0,0,0,0,0,2.5736,2.574,2.577,2.5769,2.5769,2.5785,2.5786,2.5816,2.5779,2.5775,2.5775,2.5774,2.5795,2.5797,2.5805,2.5844,2.5845,2.5809,2.581,2.5811,2.5812,0,0,0,0,0,0,0,2.5734,2.5739,2.5786,2.577,2.577,2.5764,2.5766,2.5792,2.5792,2.5775,2.5773,2.5777,2.5795,2.5803,2.5805,2.5846,2.5809,2.5811,2.5812,2.5813,2.5923,2.5924,0,0,0,0,0,0,2.5733,2.5737,2.5786,2.5787,2.5749,2.5766,2.5769,2.5781,2.5792,2.5792,2.5778,2.5775,2.58,2.5803,2.5806,2.5858,2.5811,2.5813,2.5814,2.5921,2.5923,2.5925,0,0,0,0,0,0,2.5732,2.5738,2.5785,2.5762,2.5767,2.5769,2.5783,2.5783,2.5791,2.5794,2.5794,2.5786,2.5799,2.5803,2.5835,2.5858,2.5814,2.5816,2.5919,2.5922,2.5924,2.596,0,0,0,0,0,0,2.573,2.5737,2.5753,2.5762,2.5769,2.5814,2.5785,2.5784,2.5795,2.5792,2.5802,2.5802,2.5798,2.5832,2.5837,2.586,2.5818,2.5917,2.5921,2.5923,2.5956,2.5963,2.5968,0,0,0,0,0,2.5728,2.5761,2.5754,2.576,2.5789,2.5815,2.5818,2.5813,2.5797,2.5813,2.5815,2.5802,2.5854,2.5835,2.5841,2.5865,2.5916,2.592,2.5923,2.5954,2.5962,2.5968,0,0,0,0,0,0,2.5753,2.5762,2.5754,2.5792,2.5803,2.5811,2.5831,2.5821,2.5837,2.5834,2.5826,2.5828,2.5863,2.5867,2.5845,2.5907,2.5882,2.5887,2.5904,2.5911,2.5917,2.5916,2.582,0,0,0,0,0,2.5763,2.5784,2.5791,2.5823,2.5829,2.5829,2.584,2.5836,2.5847,2.5851,2.5856,2.5867,2.5886,2.5898,2.5916,2.5956,2.5959,2.5976,2.5982,2.5987,2.5992,2.6016,2.6024,2.5937,2.5937,2.5937,0,0,2.5784,2.5792,2.5805,2.5829,2.5837,2.5859,2.5833,2.5857,2.5874,2.5854,2.5886,2.589,2.5901,2.5939,2.5955,2.5943,2.6016,2.5991,2.5995,2.5998,2.602,2.6029,2.6036,2.5939,2.5939,2.5938,0,0,2.5835,2.5841,2.5871,2.588,2.5893,2.5893,2.59,2.591,2.5912,2.5944,2.593,2.595,2.5982,2.5992,2.6001,2.6057,2.6046,2.6062,2.6095,2.6118,2.6125,2.6131,2.6153,2.6161,2.6067,2.6067,2.6067,0,2.5859,2.5892,2.5887,2.5913,2.5924,2.5909,2.5939,2.5947,2.5965,2.5974,2.596,2.6002,2.6008,2.6049,2.6063,2.607,2.6079,2.6062,2.6125,2.6131,2.6136,2.6157,2.6166,2.6069,2.6069,2.6069,2.6068,0,2.5923,2.5947,2.5968,2.5988,2.6002,2.6029,2.6028,2.6043,2.6037,2.6039,2.6072,2.6079,2.6099,2.6108,2.6102,2.6148,2.6141,2.6126,2.6101,2.6147,2.6167,2.6175,2.6072,2.6071,2.6071,2.607,0,0,2.599,2.6007,2.6016,2.6026,2.604,2.6058,2.6085,2.6106,2.6119,2.6132,2.6156,2.6185,2.6172,2.6182,2.6177,2.6197,2.6244,2.618,2.618,2.6194,2.6299,2.6311,2.6321,2.6236,2.6238,2.6239,2.6298,0,2.6043,2.6092,2.6088,2.6134,2.6157,2.6143,2.6168,2.6179,2.6182,2.6201,2.6203,2.6225,2.6205,2.6212,2.6231,2.6234,2.6266,2.623,2.626,2.6261,2.6259,2.6331,2.6344,2.6399,2.6306,2.6307,2.6308,0,2.611,2.6128,2.6177,2.619,2.6199,2.6221,2.6241,2.626,2.6273,2.6273,2.6286,2.6278,2.6306,2.628,2.632,2.6296,2.6308,2.6311,2.6313,2.6317,2.6289,2.6339,2.6417,2.6426,2.632,2.6319,2.6318,0,2.6158,2.6193,2.6228,2.6236,2.6251,2.6268,2.6274,2.6286,2.63,2.6316,2.6325,2.6345,2.6356,2.6371,2.6369,2.635,2.641,2.6383,2.6413,2.6413,2.6427,2.6427,2.6511,2.6431,2.6431,2.6431,2.6431,0,2.6218,2.6249,2.625,2.6271,2.6306,2.6302,2.6336,2.6341,2.6352,2.6375,2.6363,2.6384,2.6379,2.64,2.6398,2.6433,2.6437,2.6439,2.6439,2.6442,2.6442,2.6451,2.6447,2.6433,2.6433,2.6432,2.6432,0,2.6277,2.6278,2.6316,2.6328,2.6331,2.6357,2.6367,2.6388,2.639,2.6419,2.6425,2.6428,2.6453,2.6452,2.6479,2.6478,2.6521,2.6515,2.6518,2.6517,2.6547,2.6545,2.6641,2.6655,2.6565,2.6566,2.6567,0,2.6316,2.634,2.6356,2.6371,2.6379,2.6403,2.6417,2.6414,2.6429,2.6447,2.6466,2.649,2.6509,2.6549,2.6553,2.6575,2.657,2.6603,2.6573,2.6576,2.6574,2.6573,2.6577,2.6609,2.661,2.6611,2.6611,0,2.6387,2.6387,2.6408,2.6431,2.6449,2.6465,2.6481,2.6494,2.6492,2.651,2.6536,2.6551,2.658,2.6605,2.6625,2.6632,2.6622,2.662,2.6629,2.6633,2.6634,2.6636,2.6536,2.6618,2.6618,2.6617,2.6617,2.6616,2.6439,2.6461,2.6476,2.6501,2.6512,2.6528,2.6549,2.6554,2.6576,2.66,2.6597,2.6626,2.664,2.6667,2.6676,2.6699,2.6688,2.6699,2.6703,2.6706,2.6711,2.6629,2.6703,2.6703,2.6702,2.6702,2.6702,0,2.6511,2.652,2.6543,2.6567,2.6587,2.6576,2.6593,2.6611,2.6637,2.6651,2.6671,2.6702,2.6726,2.6733,2.6756,2.6773,2.6769,2.678,2.6779,2.6782,2.6718,2.671,2.6783,2.6783,2.6783,2.6783,2.6783,2.6783,2.6551,2.6588,2.659,2.6634,2.6642,2.6673,2.6684,2.6698,2.671,2.6745,2.6766,2.677,2.6782,2.6807,2.6828,2.683,2.684,2.6853,2.6852,2.6794,2.6786,2.6778,2.677,2.6854,2.6854,2.6914,2.6914,2.6915]}]]